Regional Weather Roundup
Issued by NWS Bismarck, ND

Home | Current Version | Previous Version | Text Only | Print | Product List | Glossary On
Versions: 1 2 3 4 5 6 7 8 9 10 11 12 13 14 15 16 17 18 19 20 21 22 23 24 25 26 27 28 29 30 31 32 33 34 35 36 37 38 39 40 41 42 43 44 45 46 47 48 49 50
000
ASUS43 KBIS 202310
RWRBIS

NWR BROADCAST TEXT
NATIONAL WEATHER SERVICE BISMARCK ND
600 PM CDT FRI OCT 20 2017

NOTE: "FAIR" INDICATES FEW OR NO CLOUDS BELOW 12,000 FEET WITH NO
SIGNIFICANT WEATHER AND/OR OBSTRUCTIONS TO VISIBILITY.


CITY           SKY/WX    TMP DP  RH WIND       PRES   REMARKS
WILLISTON        N/A    N/A N/A N/A MISG      29.19F
MINOT          CLEAR     77  40  26 SE9       29.22F
MINOT AFB      CLEAR     74  38  27 S7        29.20F
BISMARCK       PTCLDY    76  49  38 S12       29.28R
DICKINSON      CLEAR     77  40  26 SE7       29.21F
GARRISON         N/A     74  47  38 SE13      29.24S
HETTINGER ARPT CLEAR     80  33  18 SW15      29.26S
JAMESTOWN      MOCLDY    70  52  52 S13       29.35F
CARRINGTON     FAIR      68  50  52 S24       29.33S
HAZEN          FAIR      77  45  31 SE20      29.24S
LINTON         FAIR      73  50  43 S21G28    29.30F
RUGBY          FAIR      73  48  40 S15G24    29.25S
STANLEY        FAIR      68  36  30 S7        29.26S
TIOGA          FAIR      72  37  28 SE9       29.24S
WATFORD CITY   FAIR      75  34  22 SE10      29.20F
$$

CITY           SKY/WX    TMP DP  RH WIND       PRES   REMARKS
GRAND FORKS    MOCLDY    75  54  47 S20G35    29.37F
GRAND FORKS AF MOCLDY    73  52  46 S22G33    29.37S
DEVILS LAKE    CLOUDY    66  51  58 SE18      29.31F
FARGO          CLEAR     75  54  47 S20G35    29.43R
CANDO          FAIR      68  50  52 SE23      29.31S
CAVALIER       FAIR      75  50  41 S24G35    29.31S
GRAFTON        FAIR      72  52  49 S15G23    29.37R
GWINNER        CLEAR     72  54  53 S20G26    29.42S
LANGDON        FAIR      68  50  52 S17G25    29.34R
ROLLA          FAIR      68  48  49 SE18      29.28F
WALHALLA       FAIR     N/A N/A N/A S10G18    29.30S
$$

CITY           SKY/WX    TMP DP  RH WIND       PRES   REMARKS
ABERDEEN       PTCLDY    73  55  53 S21G30    29.41F
MOBRIDGE       MOCLDY    78  53  41 S23G29    29.28F
BUFFALO          N/A     80  33  18 SW22      29.20S
RAPID CITY     CLEAR     79  34  19 SW16G28   29.33F
GLASGOW        CLOUDY    74  29  19 S7        29.16R
SIDNEY         CLEAR     74  43  32 NE5       29.17F
WOLF POINT     CLOUDY    77  31  18 CALM      29.15F
GLENDIVE       CLEAR     78  39  24 CALM      29.20S
MILES CITY     CLOUDY    78  36  21 CALM      29.20S
BAKER          CLEAR     74  37  26 SW9       29.23S
$$

CITY           SKY/WX    TMP DP  RH WIND       PRES   REMARKS
BILLINGS       CLOUDY    64  31  28 W25G36    29.33R
GREAT FALLS    LGT RAIN  44  33  65 W17G33    29.48R
REGINA         MOCLDY    64  34  32 SE7       29.15F
ESTEVAN        MOCLDY    70  34  26 SE8       29.19S
$$




USA.gov is the U.S. government's official web portal to all federal, state and local government web resources and services.